Tracking 35280 objects as of 7-Sep-2026
HD Live streaming from Space Station
objects crossing your sky now

SL-6 R/B(1)


SL-6 R/B(1) is no longer on orbit


NORAD ID: 7781
Int'l Code: 1975-036B
Launch date: April 29, 1975
Source: Commonwealth of Independent States (former USSR) (CIS)
Launch site: PLESETSK MISSILE AND SPACE COMPLEX (PKMTR)
Decay date: 1975-05-29

Note: This is a ROCKET BODY
Your satellite tracking list
Your tracking list is empty




NASA's NSSDC Master Catalog

Two Line Element Set (TLE):
1 07781U 75036  B 75147.82630343  .02446571 +00000-0 +00000-0 0  9996
2 07781 062.8293 211.1908 0018282 123.0875 237.1996 16.31406705004558
Source of the keplerian elements: AFSPC